Year,Month,Day,Hour,Minute,Value (Times are PST for temperature in C)
2009,07,16,00,00,14.80
2009,07,16,00,01,14.80
2009,07,16,00,02,14.80
2009,07,16,00,03,14.80
2009,07,16,00,04,14.80
2009,07,16,00,05,14.80
2009,07,16,00,06,14.90
2009,07,16,00,07,14.90
2009,07,16,00,08,14.90
2009,07,16,00,09,14.90
2009,07,16,00,10,14.90
2009,07,16,00,11,14.90
2009,07,16,00,12,14.90
2009,07,16,00,13,14.90
2009,07,16,00,14,14.90
2009,07,16,00,15,14.90
2009,07,16,00,16,15.00
2009,07,16,00,17,15.00
2009,07,16,00,18,14.90
2009,07,16,00,19,14.90
2009,07,16,00,20,14.90
2009,07,16,00,21,14.90
2009,07,16,00,22,14.90
2009,07,16,00,23,14.90
2009,07,16,00,24,14.90
2009,07,16,00,25,14.90
2009,07,16,00,26,14.90
2009,07,16,00,27,14.80
2009,07,16,00,28,14.80
2009,07,16,00,29,14.80
2009,07,16,00,30,14.80
2009,07,16,00,31,14.80
2009,07,16,00,32,14.80
2009,07,16,00,33,14.80
2009,07,16,00,34,14.80
2009,07,16,00,35,14.80
2009,07,16,00,36,14.80
2009,07,16,00,37,14.80
2009,07,16,00,38,14.80
2009,07,16,00,39,14.80
2009,07,16,00,40,14.80
2009,07,16,00,41,14.80
2009,07,16,00,42,14.80
2009,07,16,00,43,14.80
2009,07,16,00,44,14.80
2009,07,16,00,45,14.80
2009,07,16,00,46,14.80
2009,07,16,00,47,14.80
2009,07,16,00,48,14.80
2009,07,16,00,49,14.80
2009,07,16,00,50,14.70
2009,07,16,00,51,14.70
2009,07,16,00,52,14.70
2009,07,16,00,53,14.70
2009,07,16,00,54,14.70
2009,07,16,00,55,14.70
2009,07,16,00,56,14.80
2009,07,16,00,57,14.80
2009,07,16,00,58,14.80
2009,07,16,00,59,14.80
2009,07,16,01,00,14.80
2009,07,16,01,01,14.80
2009,07,16,01,02,14.80
2009,07,16,01,03,14.80
2009,07,16,01,04,14.80
2009,07,16,01,05,14.70
2009,07,16,01,06,14.70
2009,07,16,01,07,14.70
2009,07,16,01,08,14.70
2009,07,16,01,09,14.70
2009,07,16,01,10,14.70
2009,07,16,01,11,14.70
2009,07,16,01,12,14.70
2009,07,16,01,13,14.70
2009,07,16,01,14,14.70
2009,07,16,01,15,14.70
2009,07,16,01,16,14.60
2009,07,16,01,17,14.60
2009,07,16,01,18,14.60
2009,07,16,01,19,14.60
2009,07,16,01,20,14.60
2009,07,16,01,21,14.60
2009,07,16,01,22,14.60
2009,07,16,01,23,14.50
2009,07,16,01,24,14.50
2009,07,16,01,25,14.50
2009,07,16,01,26,14.50
2009,07,16,01,27,14.50
2009,07,16,01,28,14.50
2009,07,16,01,29,14.50
2009,07,16,01,30,14.40
2009,07,16,01,31,14.40
2009,07,16,01,32,14.40
2009,07,16,01,33,14.40
2009,07,16,01,34,14.40
2009,07,16,01,35,14.40
2009,07,16,01,36,14.40
2009,07,16,01,37,14.40
2009,07,16,01,38,14.40
2009,07,16,01,39,14.40
2009,07,16,01,40,14.40
2009,07,16,01,41,14.40
2009,07,16,01,42,14.40
2009,07,16,01,43,14.40
2009,07,16,01,44,14.40
2009,07,16,01,45,14.40
2009,07,16,01,46,14.50
2009,07,16,01,47,14.50
2009,07,16,01,48,14.50
2009,07,16,01,49,14.50
2009,07,16,01,50,14.50
2009,07,16,01,51,14.50
2009,07,16,01,52,14.50
2009,07,16,01,53,14.50
2009,07,16,01,54,14.50
2009,07,16,01,55,14.50
2009,07,16,01,56,14.50
2009,07,16,01,57,14.40
2009,07,16,01,58,14.40
2009,07,16,01,59,14.40
2009,07,16,02,00,14.30
2009,07,16,02,01,14.30
2009,07,16,02,02,14.20
2009,07,16,02,03,14.20
2009,07,16,02,04,14.20
2009,07,16,02,05,14.10
2009,07,16,02,06,14.10
2009,07,16,02,07,14.00
2009,07,16,02,08,14.00
2009,07,16,02,09,14.00
2009,07,16,02,10,13.90
2009,07,16,02,11,13.90
2009,07,16,02,12,13.90
2009,07,16,02,13,13.80
2009,07,16,02,14,13.80
2009,07,16,02,15,13.70
2009,07,16,02,16,13.70
2009,07,16,02,17,13.70
2009,07,16,02,18,13.70
2009,07,16,02,19,13.70
2009,07,16,02,20,13.70
2009,07,16,02,21,13.60
2009,07,16,02,22,13.60
2009,07,16,02,23,13.60
2009,07,16,02,24,13.60
2009,07,16,02,25,13.60
2009,07,16,02,26,13.60
2009,07,16,02,27,13.50
2009,07,16,02,28,13.50
2009,07,16,02,29,13.50
2009,07,16,02,30,13.50
2009,07,16,02,31,13.50
2009,07,16,02,32,13.50
2009,07,16,02,33,13.50
2009,07,16,02,34,13.50
2009,07,16,02,35,13.50
2009,07,16,02,36,13.50
2009,07,16,02,37,13.50
2009,07,16,02,38,13.50
2009,07,16,02,39,13.50
2009,07,16,02,40,13.50
2009,07,16,02,41,13.50
2009,07,16,02,42,13.50
2009,07,16,02,43,13.50
2009,07,16,02,44,13.60
2009,07,16,02,45,13.60
2009,07,16,02,46,13.60
2009,07,16,02,47,13.60
2009,07,16,02,48,13.70
2009,07,16,02,49,13.70
2009,07,16,02,50,13.70
2009,07,16,02,51,13.70
2009,07,16,02,52,13.70
2009,07,16,02,53,13.80
2009,07,16,02,54,13.80
2009,07,16,02,55,13.80
2009,07,16,02,56,13.90
2009,07,16,02,57,13.90
2009,07,16,02,58,13.90
2009,07,16,02,59,13.90
2009,07,16,03,00,13.90
2009,07,16,03,01,13.90
2009,07,16,03,02,14.00
2009,07,16,03,03,14.00
2009,07,16,03,04,14.00
2009,07,16,03,05,14.00
2009,07,16,03,06,14.00
2009,07,16,03,07,14.00
2009,07,16,03,08,14.00
2009,07,16,03,09,14.00
2009,07,16,03,10,14.00
2009,07,16,03,11,13.90
2009,07,16,03,12,13.90
2009,07,16,03,13,13.90
2009,07,16,03,14,13.90
2009,07,16,03,15,13.90
2009,07,16,03,16,13.90
2009,07,16,03,17,13.90
2009,07,16,03,18,13.90
2009,07,16,03,19,13.90
2009,07,16,03,20,13.90
2009,07,16,03,21,13.90
2009,07,16,03,22,13.90
2009,07,16,03,23,13.90
2009,07,16,03,24,13.90
2009,07,16,03,25,13.90
2009,07,16,03,26,13.90
2009,07,16,03,27,13.90
2009,07,16,03,28,13.90
2009,07,16,03,29,13.90
2009,07,16,03,30,13.90
2009,07,16,03,31,13.80
2009,07,16,03,32,13.80
2009,07,16,03,33,13.80
2009,07,16,03,34,13.80
2009,07,16,03,35,13.80
2009,07,16,03,36,13.80
2009,07,16,03,37,13.80
2009,07,16,03,38,13.80
2009,07,16,03,39,13.80
2009,07,16,03,40,13.70
2009,07,16,03,41,13.70
2009,07,16,03,42,13.70
2009,07,16,03,43,13.70
2009,07,16,03,44,13.70
2009,07,16,03,45,13.70
2009,07,16,03,46,13.70
2009,07,16,03,47,13.70
2009,07,16,03,48,13.70
2009,07,16,03,49,13.70
2009,07,16,03,50,13.60
2009,07,16,03,51,13.60
2009,07,16,03,52,13.60
2009,07,16,03,53,13.60
2009,07,16,03,54,13.60
2009,07,16,03,55,13.50
2009,07,16,03,56,13.50
2009,07,16,03,57,13.50
2009,07,16,03,58,13.50
2009,07,16,03,59,13.40
2009,07,16,04,00,13.40
2009,07,16,04,01,13.40
2009,07,16,04,02,13.30
2009,07,16,04,03,13.30
2009,07,16,04,04,13.30
2009,07,16,04,05,13.30
2009,07,16,04,06,13.30
2009,07,16,04,07,13.30
2009,07,16,04,08,13.20
2009,07,16,04,09,13.20
2009,07,16,04,10,13.20
2009,07,16,04,11,13.10
2009,07,16,04,12,13.10
2009,07,16,04,13,13.10
2009,07,16,04,14,13.00
2009,07,16,04,15,13.00
2009,07,16,04,16,13.00
2009,07,16,04,17,12.90
2009,07,16,04,18,12.90
2009,07,16,04,19,12.90
2009,07,16,04,20,12.90
2009,07,16,04,21,12.90
2009,07,16,04,22,12.80
2009,07,16,04,23,12.80
2009,07,16,04,24,12.80
2009,07,16,04,25,12.80
2009,07,16,04,26,12.80
2009,07,16,04,27,12.80
2009,07,16,04,28,12.80
2009,07,16,04,29,12.80
2009,07,16,04,30,12.80
2009,07,16,04,31,12.90
2009,07,16,04,32,12.90
2009,07,16,04,33,12.90
2009,07,16,04,34,12.90
2009,07,16,04,35,13.00
2009,07,16,04,36,13.00
2009,07,16,04,37,13.00
2009,07,16,04,38,13.00
2009,07,16,04,39,13.00
2009,07,16,04,40,13.00
2009,07,16,04,41,13.00
2009,07,16,04,42,13.00
2009,07,16,04,43,13.00
2009,07,16,04,44,13.00
2009,07,16,04,45,13.00
2009,07,16,04,46,13.00
2009,07,16,04,47,13.00
2009,07,16,04,48,13.00
2009,07,16,04,49,12.90
2009,07,16,04,50,12.90
2009,07,16,04,51,12.90
2009,07,16,04,52,12.90
2009,07,16,04,53,12.90
2009,07,16,04,54,12.90
2009,07,16,04,55,12.90
2009,07,16,04,56,12.90
2009,07,16,04,57,12.90
2009,07,16,04,58,12.90
2009,07,16,04,59,12.90
2009,07,16,05,00,12.80
2009,07,16,05,01,12.80
2009,07,16,05,02,12.80
2009,07,16,05,03,12.80
2009,07,16,05,04,12.80
2009,07,16,05,05,12.80
2009,07,16,05,06,12.80
2009,07,16,05,07,12.80
2009,07,16,05,08,12.80
2009,07,16,05,09,12.70
2009,07,16,05,10,12.70
2009,07,16,05,11,12.70
2009,07,16,05,12,12.60
2009,07,16,05,13,12.60
2009,07,16,05,14,12.60
2009,07,16,05,15,12.50
2009,07,16,05,16,12.50
2009,07,16,05,17,12.50
2009,07,16,05,18,12.50
2009,07,16,05,19,12.40
2009,07,16,05,20,12.40
2009,07,16,05,21,12.40
2009,07,16,05,22,12.30
2009,07,16,05,23,12.30
2009,07,16,05,24,12.30
2009,07,16,05,25,12.30
2009,07,16,05,26,12.30
2009,07,16,05,27,12.30
2009,07,16,05,28,12.30
2009,07,16,05,29,12.30
2009,07,16,05,30,12.30
2009,07,16,05,31,12.30
2009,07,16,05,32,12.30
2009,07,16,05,33,12.30
2009,07,16,05,34,12.30
2009,07,16,05,35,12.30
2009,07,16,05,36,12.30
2009,07,16,05,37,12.30
2009,07,16,05,38,12.30
2009,07,16,05,39,12.30
2009,07,16,05,40,12.30
2009,07,16,05,41,12.30
2009,07,16,05,42,12.30
2009,07,16,05,43,12.30
2009,07,16,05,44,12.30
2009,07,16,05,45,12.30
2009,07,16,05,46,12.30
2009,07,16,05,47,12.30
2009,07,16,05,48,12.30
2009,07,16,05,49,12.30
2009,07,16,05,50,12.30
2009,07,16,05,51,12.30
2009,07,16,05,52,12.40
2009,07,16,05,53,12.40
2009,07,16,05,54,12.40
2009,07,16,05,55,12.40
2009,07,16,05,56,12.40
2009,07,16,05,57,12.50
2009,07,16,05,58,12.50
2009,07,16,05,59,12.50
2009,07,16,06,00,12.60
2009,07,16,06,01,12.60
2009,07,16,06,02,12.60
2009,07,16,06,03,12.60
2009,07,16,06,04,12.60
2009,07,16,06,05,12.60
2009,07,16,06,06,12.60
2009,07,16,06,07,12.60
2009,07,16,06,08,12.60
2009,07,16,06,09,12.60
2009,07,16,06,10,12.60
2009,07,16,06,11,12.60
2009,07,16,06,12,12.60
2009,07,16,06,13,12.60
2009,07,16,06,14,12.60
2009,07,16,06,15,12.60
2009,07,16,06,16,12.60
2009,07,16,06,17,12.60
2009,07,16,06,18,12.60
2009,07,16,06,19,12.60
2009,07,16,06,20,12.50
2009,07,16,06,21,12.50
2009,07,16,06,22,12.50
2009,07,16,06,23,12.50
2009,07,16,06,24,12.50
2009,07,16,06,25,12.50
2009,07,16,06,26,12.50
2009,07,16,06,27,12.50
2009,07,16,06,28,12.50
2009,07,16,06,29,12.50
2009,07,16,06,30,12.50
2009,07,16,06,31,12.50
2009,07,16,06,32,12.50
2009,07,16,06,33,12.50
2009,07,16,06,34,12.60
2009,07,16,06,35,12.60
2009,07,16,06,36,12.60
2009,07,16,06,37,12.60
2009,07,16,06,38,12.70
2009,07,16,06,39,12.70
2009,07,16,06,40,12.70
2009,07,16,06,41,12.80
2009,07,16,06,42,12.80
2009,07,16,06,43,12.80
2009,07,16,06,44,12.90
2009,07,16,06,45,12.90
2009,07,16,06,46,13.00
2009,07,16,06,47,13.10
2009,07,16,06,48,13.20
2009,07,16,06,49,13.30
2009,07,16,06,50,13.30
2009,07,16,06,51,13.40
2009,07,16,06,52,13.50
2009,07,16,06,53,13.60
2009,07,16,06,54,13.70
2009,07,16,06,55,13.70
2009,07,16,06,56,13.70
2009,07,16,06,57,13.80
2009,07,16,06,58,13.90
2009,07,16,06,59,13.90
2009,07,16,07,00,14.00
2009,07,16,07,01,14.00
2009,07,16,07,02,14.10
2009,07,16,07,03,14.20
2009,07,16,07,04,14.20
2009,07,16,07,05,14.20
2009,07,16,07,06,14.30
2009,07,16,07,07,14.30
2009,07,16,07,08,14.30
2009,07,16,07,09,14.40
2009,07,16,07,10,14.40
2009,07,16,07,11,14.50
2009,07,16,07,12,14.50
2009,07,16,07,13,14.50
2009,07,16,07,14,14.60
2009,07,16,07,15,14.60
2009,07,16,07,16,14.70
2009,07,16,07,17,14.70
2009,07,16,07,18,14.70
2009,07,16,07,19,14.80
2009,07,16,07,20,14.90
2009,07,16,07,21,15.00
2009,07,16,07,22,15.10
2009,07,16,07,23,15.20
2009,07,16,07,24,15.30
2009,07,16,07,25,15.40
2009,07,16,07,26,15.50
2009,07,16,07,27,15.60
2009,07,16,07,28,15.80
2009,07,16,07,29,15.80
2009,07,16,07,30,16.00
2009,07,16,07,31,16.20
2009,07,16,07,32,16.30
2009,07,16,07,33,16.40
2009,07,16,07,34,16.50
2009,07,16,07,35,16.70
2009,07,16,07,36,16.70
2009,07,16,07,37,16.80
2009,07,16,07,38,16.90
2009,07,16,07,39,17.00
2009,07,16,07,40,17.10
2009,07,16,07,41,17.20
2009,07,16,07,42,17.30
2009,07,16,07,43,17.30
2009,07,16,07,44,17.40
2009,07,16,07,45,17.50
2009,07,16,07,46,17.50
2009,07,16,07,47,17.50
2009,07,16,07,48,17.50
2009,07,16,07,49,17.50
2009,07,16,07,50,17.50
2009,07,16,07,51,17.50
2009,07,16,07,52,17.50
2009,07,16,07,53,17.60
2009,07,16,07,54,17.60
2009,07,16,07,55,17.60
2009,07,16,07,56,17.70
2009,07,16,07,57,17.70
2009,07,16,07,58,17.70
2009,07,16,07,59,17.70
2009,07,16,08,00,17.70
2009,07,16,08,01,17.70
2009,07,16,08,02,17.70
2009,07,16,08,03,17.70
2009,07,16,08,04,17.70
2009,07,16,08,05,17.80
2009,07,16,08,06,17.80
2009,07,16,08,07,17.80
2009,07,16,08,08,17.80
2009,07,16,08,09,17.70
2009,07,16,08,10,17.70
2009,07,16,08,11,17.70
2009,07,16,08,12,17.70
2009,07,16,08,13,17.70
2009,07,16,08,14,17.80
2009,07,16,08,15,17.80
2009,07,16,08,16,17.80
2009,07,16,08,17,17.90
2009,07,16,08,18,17.90
2009,07,16,08,19,18.00
2009,07,16,08,20,18.10
2009,07,16,08,21,18.10
2009,07,16,08,22,18.20
2009,07,16,08,23,18.20
2009,07,16,08,24,18.30
2009,07,16,08,25,18.40
2009,07,16,08,26,18.50
2009,07,16,08,27,18.60
2009,07,16,08,28,18.70
2009,07,16,08,29,18.70
2009,07,16,08,30,18.80
2009,07,16,08,31,18.90
2009,07,16,08,32,19.00
2009,07,16,08,33,19.10
2009,07,16,08,34,19.20
2009,07,16,08,35,19.30
2009,07,16,08,36,19.40
2009,07,16,08,37,19.50
2009,07,16,08,38,19.60
2009,07,16,08,39,19.70
2009,07,16,08,40,19.80
2009,07,16,08,41,19.80
2009,07,16,08,42,19.90
2009,07,16,08,43,19.90
2009,07,16,08,44,20.00
2009,07,16,08,45,20.10
2009,07,16,08,46,20.20
2009,07,16,08,47,20.20
2009,07,16,08,48,20.30
2009,07,16,08,49,20.50
2009,07,16,08,50,20.50
2009,07,16,08,51,20.60
2009,07,16,08,52,20.70
2009,07,16,08,53,20.70
2009,07,16,08,54,20.80
2009,07,16,08,55,20.80
2009,07,16,08,56,20.90
2009,07,16,08,57,21.00
2009,07,16,08,58,21.00
2009,07,16,08,59,21.10
2009,07,16,09,00,21.20
2009,07,16,09,01,21.20
2009,07,16,09,02,21.20
2009,07,16,09,03,21.20
2009,07,16,09,04,21.30
2009,07,16,09,05,21.30
2009,07,16,09,06,21.30
2009,07,16,09,07,21.40
2009,07,16,09,08,21.50
2009,07,16,09,09,21.60
2009,07,16,09,10,21.60
2009,07,16,09,11,21.70
2009,07,16,09,12,21.80
2009,07,16,09,13,21.90
2009,07,16,09,14,21.90
2009,07,16,09,15,22.00
2009,07,16,09,16,22.00
2009,07,16,09,17,22.00
2009,07,16,09,18,22.10
2009,07,16,09,19,22.10
2009,07,16,09,20,22.10
2009,07,16,09,21,22.10
2009,07,16,09,22,22.10
2009,07,16,09,23,22.10
2009,07,16,09,24,22.20
2009,07,16,09,25,22.20
2009,07,16,09,26,22.20
2009,07,16,09,27,22.20
2009,07,16,09,28,22.30
2009,07,16,09,29,22.30
2009,07,16,09,30,22.30
2009,07,16,09,31,22.40
2009,07,16,09,32,22.50
2009,07,16,09,33,22.60
2009,07,16,09,34,22.60
2009,07,16,09,35,22.60
2009,07,16,09,36,22.60
2009,07,16,09,37,22.60
2009,07,16,09,38,22.60
2009,07,16,09,39,22.60
2009,07,16,09,40,22.60
2009,07,16,09,41,22.60
2009,07,16,09,42,22.60
2009,07,16,09,43,22.60
2009,07,16,09,44,22.70
2009,07,16,09,45,22.70
2009,07,16,09,46,22.70
2009,07,16,09,47,22.70
2009,07,16,09,48,22.60
2009,07,16,09,49,22.60
2009,07,16,09,50,22.60
2009,07,16,09,51,22.60
2009,07,16,09,52,22.60
2009,07,16,09,53,22.70
2009,07,16,09,54,22.70
2009,07,16,09,55,22.80
2009,07,16,09,56,22.90
2009,07,16,09,57,22.90
2009,07,16,09,58,22.90
2009,07,16,09,59,23.00
2009,07,16,10,00,23.10
2009,07,16,10,01,23.10
2009,07,16,10,02,23.20
2009,07,16,10,03,23.20
2009,07,16,10,04,23.20
2009,07,16,10,05,23.10
2009,07,16,10,06,23.10
2009,07,16,10,07,23.10
2009,07,16,10,08,23.10
2009,07,16,10,09,23.20
2009,07,16,10,10,23.30
2009,07,16,10,11,23.30
2009,07,16,10,12,23.40
2009,07,16,10,13,23.50
2009,07,16,10,14,23.60
2009,07,16,10,15,23.60
2009,07,16,10,16,23.60
2009,07,16,10,17,23.60
2009,07,16,10,18,23.60
2009,07,16,10,19,23.60
2009,07,16,10,20,23.60
2009,07,16,10,21,23.70
2009,07,16,10,22,23.70
2009,07,16,10,23,23.70
2009,07,16,10,24,23.70
2009,07,16,10,25,23.70
2009,07,16,10,26,23.80
2009,07,16,10,27,23.90
2009,07,16,10,28,24.00
2009,07,16,10,29,24.10
2009,07,16,10,30,24.10
2009,07,16,10,31,24.20
2009,07,16,10,32,24.30
2009,07,16,10,33,24.30
2009,07,16,10,34,24.40
2009,07,16,10,35,24.40
2009,07,16,10,36,24.40
2009,07,16,10,37,24.30
2009,07,16,10,38,24.10
2009,07,16,10,39,24.10
2009,07,16,10,40,24.10
2009,07,16,10,41,24.20
2009,07,16,10,42,24.20
2009,07,16,10,43,24.20
2009,07,16,10,44,24.20
2009,07,16,10,45,24.10
2009,07,16,10,46,24.10
2009,07,16,10,47,24.20
2009,07,16,10,48,24.30
2009,07,16,10,49,24.30
2009,07,16,10,50,24.40
2009,07,16,10,51,24.40
2009,07,16,10,52,24.40
2009,07,16,10,53,24.40
2009,07,16,10,54,24.40
2009,07,16,10,55,24.40
2009,07,16,10,56,24.50
2009,07,16,10,57,24.50
2009,07,16,10,58,24.60
2009,07,16,10,59,24.70
2009,07,16,11,00,24.80
2009,07,16,11,01,24.90
2009,07,16,11,02,25.00
2009,07,16,11,03,25.10
2009,07,16,11,04,25.20
2009,07,16,11,05,25.20
2009,07,16,11,06,25.20
2009,07,16,11,07,25.30
2009,07,16,11,08,25.20
2009,07,16,11,09,25.20
2009,07,16,11,10,25.20
2009,07,16,11,11,25.20
2009,07,16,11,12,25.20
2009,07,16,11,13,25.20
2009,07,16,11,14,25.30
2009,07,16,11,15,25.30
2009,07,16,11,16,25.40
2009,07,16,11,17,25.40
2009,07,16,11,18,25.40
2009,07,16,11,19,25.40
2009,07,16,11,20,25.40
2009,07,16,11,21,25.40
2009,07,16,11,22,25.30
2009,07,16,11,23,25.30
2009,07,16,11,24,25.20
2009,07,16,11,25,25.10
2009,07,16,11,26,25.00
2009,07,16,11,27,24.90
2009,07,16,11,28,25.00
2009,07,16,11,29,24.90
2009,07,16,11,30,24.90
2009,07,16,11,31,24.90
2009,07,16,11,32,24.90
2009,07,16,11,33,24.90
2009,07,16,11,34,25.00
2009,07,16,11,35,25.20
2009,07,16,11,36,25.30
2009,07,16,11,37,25.40
2009,07,16,11,38,25.40
2009,07,16,11,39,25.50
2009,07,16,11,40,25.50
2009,07,16,11,41,25.50
2009,07,16,11,42,25.50
2009,07,16,11,43,25.50
2009,07,16,11,44,25.50
2009,07,16,11,45,25.50
2009,07,16,11,46,25.60
2009,07,16,11,47,25.60
2009,07,16,11,48,25.50
2009,07,16,11,49,25.50
2009,07,16,11,50,25.40
2009,07,16,11,51,25.40
2009,07,16,11,52,25.40
2009,07,16,11,53,25.40
2009,07,16,11,54,25.40
2009,07,16,11,55,25.50
2009,07,16,11,56,25.40
2009,07,16,11,57,25.40
2009,07,16,11,58,25.40
2009,07,16,11,59,25.40
2009,07,16,12,00,25.30
2009,07,16,12,01,25.20
2009,07,16,12,02,25.30
2009,07,16,12,03,25.30
2009,07,16,12,04,25.30
2009,07,16,12,05,25.40
2009,07,16,12,06,25.60
2009,07,16,12,07,25.70
2009,07,16,12,08,25.90
2009,07,16,12,09,25.90
2009,07,16,12,10,25.80
2009,07,16,12,11,25.70
2009,07,16,12,12,25.70
2009,07,16,12,13,25.60
2009,07,16,12,14,25.60
2009,07,16,12,15,25.60
2009,07,16,12,16,25.70
2009,07,16,12,17,25.90
2009,07,16,12,18,26.00
2009,07,16,12,19,26.10
2009,07,16,12,20,26.30
2009,07,16,12,21,26.30
2009,07,16,12,22,26.30
2009,07,16,12,23,26.30
2009,07,16,12,24,26.40
2009,07,16,12,25,26.50
2009,07,16,12,26,26.60
2009,07,16,12,27,26.70
2009,07,16,12,28,26.80
2009,07,16,12,29,26.80
2009,07,16,12,30,26.90
2009,07,16,12,31,26.90
2009,07,16,12,32,27.00
2009,07,16,12,33,27.10
2009,07,16,12,34,27.00
2009,07,16,12,35,26.90
2009,07,16,12,36,26.90
2009,07,16,12,37,26.80
2009,07,16,12,38,26.80
2009,07,16,12,39,26.90
2009,07,16,12,40,26.90
2009,07,16,12,41,26.70
2009,07,16,12,42,26.50
2009,07,16,12,43,26.40
2009,07,16,12,44,26.40
2009,07,16,12,45,26.40
2009,07,16,12,46,26.40
2009,07,16,12,47,26.40
2009,07,16,12,48,26.40
2009,07,16,12,49,26.40
2009,07,16,12,50,26.50
2009,07,16,12,51,26.60
2009,07,16,12,52,26.60
2009,07,16,12,53,26.60
2009,07,16,12,54,26.60
2009,07,16,12,55,26.60
2009,07,16,12,56,26.60
2009,07,16,12,57,26.60
2009,07,16,12,58,26.60
2009,07,16,12,59,26.60
2009,07,16,13,00,26.70
2009,07,16,13,01,26.80
2009,07,16,13,02,26.80
2009,07,16,13,03,26.90
2009,07,16,13,04,26.90
2009,07,16,13,05,27.00
2009,07,16,13,06,27.10
2009,07,16,13,07,27.10
2009,07,16,13,08,27.20
2009,07,16,13,09,27.10
2009,07,16,13,10,27.10
2009,07,16,13,11,27.10
2009,07,16,13,12,27.10
2009,07,16,13,13,27.00
2009,07,16,13,14,26.90
2009,07,16,13,15,26.90
2009,07,16,13,16,26.90
2009,07,16,13,17,27.10
2009,07,16,13,18,27.10
2009,07,16,13,19,27.20
2009,07,16,13,20,27.20
2009,07,16,13,21,27.20
2009,07,16,13,22,27.30
2009,07,16,13,23,27.30
2009,07,16,13,24,27.30
2009,07,16,13,25,27.30
2009,07,16,13,26,27.30
2009,07,16,13,27,27.30
2009,07,16,13,28,27.30
2009,07,16,13,29,27.30
2009,07,16,13,30,27.30
2009,07,16,13,31,27.30
2009,07,16,13,32,27.30
2009,07,16,13,33,27.30
2009,07,16,13,34,27.30
2009,07,16,13,35,27.30
2009,07,16,13,36,27.40
2009,07,16,13,37,27.40
2009,07,16,13,38,27.40
2009,07,16,13,39,27.40
2009,07,16,13,40,27.50
2009,07,16,13,41,27.40
2009,07,16,13,42,27.40
2009,07,16,13,43,27.30
2009,07,16,13,44,27.20
2009,07,16,13,45,27.20
2009,07,16,13,46,27.10
2009,07,16,13,47,27.00
2009,07,16,13,48,26.80
2009,07,16,13,49,26.80
2009,07,16,13,50,26.70
2009,07,16,13,51,26.70
2009,07,16,13,52,26.70
2009,07,16,13,53,26.70
2009,07,16,13,54,26.50
2009,07,16,13,55,26.40
2009,07,16,13,56,26.20
2009,07,16,13,57,26.20
2009,07,16,13,58,26.30
2009,07,16,13,59,26.40
2009,07,16,14,00,26.50
2009,07,16,14,01,26.60
2009,07,16,14,02,26.60
2009,07,16,14,03,26.60
2009,07,16,14,04,26.60
2009,07,16,14,05,26.60
2009,07,16,14,06,26.50
2009,07,16,14,07,26.40
2009,07,16,14,08,26.40
2009,07,16,14,09,26.50
2009,07,16,14,10,26.60
2009,07,16,14,11,26.60
2009,07,16,14,12,26.70
2009,07,16,14,13,26.80
2009,07,16,14,14,26.80
2009,07,16,14,15,26.90
2009,07,16,14,16,26.90
2009,07,16,14,17,26.90
2009,07,16,14,18,27.10
2009,07,16,14,19,27.10
2009,07,16,14,20,27.20
2009,07,16,14,21,27.20
2009,07,16,14,22,27.20
2009,07,16,14,23,27.20
2009,07,16,14,24,27.30
2009,07,16,14,25,27.30
2009,07,16,14,26,27.40
2009,07,16,14,27,27.50
2009,07,16,14,28,27.60
2009,07,16,14,29,27.70
2009,07,16,14,30,27.70
2009,07,16,14,31,27.70
2009,07,16,14,32,27.70
2009,07,16,14,33,27.80
2009,07,16,14,34,27.80
2009,07,16,14,35,27.80
2009,07,16,14,36,27.90
2009,07,16,14,37,28.00
2009,07,16,14,38,28.20
2009,07,16,14,39,28.20
2009,07,16,14,40,28.20
2009,07,16,14,41,28.20
2009,07,16,14,42,28.10
2009,07,16,14,43,28.00
2009,07,16,14,44,28.00
2009,07,16,14,45,28.00
2009,07,16,14,46,28.00
2009,07,16,14,47,28.00
2009,07,16,14,48,28.00
2009,07,16,14,49,28.00
2009,07,16,14,50,28.00
2009,07,16,14,51,27.90
2009,07,16,14,52,27.90
2009,07,16,14,53,27.90
2009,07,16,14,54,27.90
2009,07,16,14,55,27.80
2009,07,16,14,56,27.80
2009,07,16,14,57,27.80
2009,07,16,14,58,27.80
2009,07,16,14,59,27.80
2009,07,16,15,00,27.80
2009,07,16,15,01,27.80
2009,07,16,15,02,27.90
2009,07,16,15,03,27.90
2009,07,16,15,04,28.00
2009,07,16,15,05,28.00
2009,07,16,15,06,28.10
2009,07,16,15,07,28.10
2009,07,16,15,08,28.10
2009,07,16,15,09,28.20
2009,07,16,15,10,28.20
2009,07,16,15,11,28.10
2009,07,16,15,12,28.10
2009,07,16,15,13,28.10
2009,07,16,15,14,28.00
2009,07,16,15,15,28.00
2009,07,16,15,16,28.00
2009,07,16,15,17,28.00
2009,07,16,15,18,28.10
2009,07,16,15,19,28.10
2009,07,16,15,20,28.20
2009,07,16,15,21,28.10
2009,07,16,15,22,28.00
2009,07,16,15,23,27.90
2009,07,16,15,24,27.80
2009,07,16,15,25,27.80
2009,07,16,15,26,27.80
2009,07,16,15,27,27.80
2009,07,16,15,28,27.80
2009,07,16,15,29,27.80
2009,07,16,15,30,27.80
2009,07,16,15,31,27.90
2009,07,16,15,32,27.90
2009,07,16,15,33,27.90
2009,07,16,15,34,27.80
2009,07,16,15,35,27.80
2009,07,16,15,36,27.80
2009,07,16,15,37,27.90
2009,07,16,15,38,27.90
2009,07,16,15,39,27.90
2009,07,16,15,40,27.90
2009,07,16,15,41,27.90
2009,07,16,15,42,27.90
2009,07,16,15,43,28.00
2009,07,16,15,44,28.00
2009,07,16,15,45,28.10
2009,07,16,15,46,28.10
2009,07,16,15,47,28.00
2009,07,16,15,48,28.00
2009,07,16,15,49,27.90
2009,07,16,15,50,27.90
2009,07,16,15,51,27.80
2009,07,16,15,52,27.80
2009,07,16,15,53,27.70
2009,07,16,15,54,27.70
2009,07,16,15,55,27.70
2009,07,16,15,56,27.70
2009,07,16,15,57,27.80
2009,07,16,15,58,27.80
2009,07,16,15,59,27.80
2009,07,16,16,00,27.90
2009,07,16,16,01,27.90
2009,07,16,16,02,27.90
2009,07,16,16,03,27.90
2009,07,16,16,04,27.90
2009,07,16,16,05,27.80
2009,07,16,16,06,27.80
2009,07,16,16,07,27.80
2009,07,16,16,08,27.90
2009,07,16,16,09,27.90
2009,07,16,16,10,27.80
2009,07,16,16,11,27.80
2009,07,16,16,12,27.70
2009,07,16,16,13,27.60
2009,07,16,16,14,27.50
2009,07,16,16,15,27.40
2009,07,16,16,16,27.40
2009,07,16,16,17,27.30
2009,07,16,16,18,27.30
2009,07,16,16,19,27.30
2009,07,16,16,20,27.30
2009,07,16,16,21,27.30
2009,07,16,16,22,27.30
2009,07,16,16,23,27.20
2009,07,16,16,24,27.30
2009,07,16,16,25,27.30
2009,07,16,16,26,27.20
2009,07,16,16,27,27.20
2009,07,16,16,28,27.20
2009,07,16,16,29,27.20
2009,07,16,16,30,27.20
2009,07,16,16,31,27.20
2009,07,16,16,32,27.10
2009,07,16,16,33,27.10
2009,07,16,16,34,27.10
2009,07,16,16,35,27.10
2009,07,16,16,36,27.10
2009,07,16,16,37,27.10
2009,07,16,16,38,26.90
2009,07,16,16,39,26.90
2009,07,16,16,40,26.90
2009,07,16,16,41,26.90
2009,07,16,16,42,26.90
2009,07,16,16,43,26.80
2009,07,16,16,44,26.80
2009,07,16,16,45,26.80
2009,07,16,16,46,26.80
2009,07,16,16,47,26.70
2009,07,16,16,48,26.70
2009,07,16,16,49,26.80
2009,07,16,16,50,26.80
2009,07,16,16,51,26.90
2009,07,16,16,52,26.90
2009,07,16,16,53,26.90
2009,07,16,16,54,26.90
2009,07,16,16,55,26.90
2009,07,16,16,56,27.00
2009,07,16,16,57,27.00
2009,07,16,16,58,26.90
2009,07,16,16,59,26.90
2009,07,16,17,00,26.90
2009,07,16,17,01,26.80
2009,07,16,17,02,26.80
2009,07,16,17,03,26.80
2009,07,16,17,04,26.70
2009,07,16,17,05,26.70
2009,07,16,17,06,26.70
2009,07,16,17,07,26.60
2009,07,16,17,08,26.60
2009,07,16,17,09,26.60
2009,07,16,17,10,26.60
2009,07,16,17,11,26.60
2009,07,16,17,12,26.60
2009,07,16,17,13,26.60
2009,07,16,17,14,26.60
2009,07,16,17,15,26.60
2009,07,16,17,16,26.60
2009,07,16,17,17,26.60
2009,07,16,17,18,26.60
2009,07,16,17,19,26.60